星链-31486 (STARLINK-31486 )

导读

STARLINK-31486是美国SpaceX星链互联网卫星星座的一员,于2024年3月10日发射入轨,服务全球高速互联网接入,为偏远地区、海上、航空等场景提供低延迟宽带通信覆盖。这类低轨卫星依托大规模星座组网,大幅降低地面通信基础设施依赖,进一步推动全球互联覆盖。截至2026年,该卫星已在轨稳定运行两年,参与星座扩容与服务升级。

基本信息
目录编号:
59181
目录名称:
STARLINK-31486
国际标识:
2024-045D
轨道中心:
EARTH
卫星名称:
星链-31486
卫星全名:
星链-31486 (STARLINK-31486 )
卫星状态:
在轨 (已飞行908 天)
发射日期:
2024-03-10 UTC
国别 :
美国 (US)
星等 :
--
轨道信息
数据来源 国际轨道数据
星历时间: 2026-09-04T11:50:21+0800
5小时前
查看轨道信息
半长轴: 6861.189km
偏心率: 0.0001005
轨道倾角: 43.003°
近地点辐角 290.224°
升交点赤经 161.395°
平近点角 69.850°
近地点: 482.362km
远地点: 483.742km
周期: 94.267分钟
每日圈数: 15.275791
详细信息
固有亮度:
5
最大亮度:
0.3
卫星平台:
Starlink v2.0 mini
覆盖范围:
全球
运营商:
太空探索技术公司
运营商所在国:
美国
制造商(研发单位):
太空探索技术公司
制造商所在国:
美国
使用方式:
暂无
卫星简介
星链(Starlink)计划是由太空探索技术公司(SpaceX)提出的一个巨型低轨卫星互联网星座项目,计划在2019年至2024年间在太空搭建由约1.2万颗卫星组成的“星链”网络,其中1584颗将部署在地球上空550千米处的近地轨道,并从2020年开始工作。该卫星仍在工作。
2D轨道图
3D轨道图
轨道高度分析图
轨道倾角分析图
轨道综合分析图
查看轨道综合分析图
交会数据列表
事件ID 空间交会对象 最接近时刻(TCA) 交会距离 交会风险概率(CRP) 交会风险指数(CRI) 操作
CDM_260904-060605-918106-261921
IRIS-F3 (62619)
2026-09-04T
06:06:11+0000
2.918 km
极远距离
1.358009E-6 低风险 0.38
CDM_260905-073505-918106-332621
2026-09-05T
07:35:39+0000
2.915 km
极远距离
7.644148E-7 极低风险 0.33